Regional Weather Roundup
Issued by NWS Mobile, AL

Current Version | Previous Version | Text Only | Print | Product List | Glossary On
Versions: 1 2 3 4 5 6 7 8 9 10 11 12 13 14 15 16 17 18 19 20 21 22 23 24 25 26 27
000
ASUS44 KMOB 210210
RWRMOB
REGIONAL WEATHER ROUNDUP
NATIONAL WEATHER SERVICE MOBILE AL
900 PM CDT SUN APR 20 2014

NOTE: "FAIR" INDICATES FEW OR NO CLOUDS BELOW 12,000 FEET WITH NO
      SIGNIFICANT WEATHER AND/OR OBSTRUCTIONS TO VISIBILITY.

  * THESE STATIONS ARE PART OF THE UNIVERSITY OF SOUTH ALABAMA
    MESONET AND ARE NOT UNDER NWS OR FAA QUALITY CONTROL.

ALZ061>064-210300-
COASTAL ALABAMA

CITY           SKY/WX    TMP DP  RH WIND       PRES   REMARKS
MOBILE REG APT PTCLDY    63  56  78 SE6       30.15R
BROOKLEY FIELD CLEAR     65  57  75 E7        30.16R
USA CAMPUS*      N/A     61  55  82 CALM      30.15R
DOG RIVER*     NOT AVBL


CITY           SKY/WX    TMP DP  RH WIND       PRES   REMARKS
MOUNT VERNON*    N/A     57  55  94 CALM      30.15R
SARALAND*      NOT AVBL
BAY MINETTE*   NOT AVBL
LOXLEY*        NOT AVBL
ROBERTSDALE*   NOT AVBL
FAIRHOPE*      NOT AVBL
ELBERTA*       NOT AVBL
FOLEY*         NOT AVBL
GRAND BAY*       N/A     63  59  88 S3        30.13R
DAUPHIN ISLND* NOT AVBL
BON SCOUR NWR* NOT AVBL
GULF SHORES    CLEAR     59  54  84 NE3       30.15R

$$

ALZ051>060-210300-
INTERIOR SOUTHWEST AND SOUTH CENTRAL ALABAMA

CITY           SKY/WX    TMP DP  RH WIND       PRES   REMARKS
GREENVILLE     CLEAR     61  56  83 S3        30.14R
EVERGREEN      CLEAR     59  56  89 CALM      30.17R
CASTLEBERRY*   NOT AVBL
ATMORE*          N/A     59  55  88 S3        30.17R
DIXIE*         NOT AVBL
ANDALUSIA/OPP  CLEAR     60  54  80 CALM      30.15R
ANDALUSIA*     NOT AVBL
FLORALA APT    CLEAR     55  53  93 CALM      30.16R
FLORALA*         N/A     54  52  94 CALM      30.13R

$$

FLZ001>006-210300-
WESTERN FLORIDA PANHANDLE

CITY           SKY/WX    TMP DP  RH WIND       PRES   REMARKS
PENSACOLA      CLEAR     59  53  80 CALM      30.15R
NAS PENSACOLA  CLEAR     59  54  83 NE3       30.15R
MILTON         CLEAR     55  52  89 W5        30.15R
WHTNG S FIELD  CLEAR     56  52  86 NW3       30.15R


CITY           SKY/WX    TMP DP  RH WIND       PRES   REMARKS
WALNUT HILL*   NOT AVBL
JAY*           NOT AVBL
DUKE FIELD     CLEAR     55  54  99 CALM      30.15R
CRESTVIEW      CLEAR     55  53  93 CALM      30.16R
VALPARAISO     CLEAR     56  54  92 NE2       30.15R
DESTIN         CLEAR     59  53  80 CALM      30.14R

$$

MSZ076-079-210300-
INTERIOR SOUTHEAST MISSISSIPPI

CITY           SKY/WX    TMP DP  RH WIND       PRES   REMARKS
LEAKESVILLE*     N/A     64  55  72 E6        30.13R
AGRICOLA*      NOT AVBL

$$

MARINE OBSERVATIONS

STATION/POSITION TIME  TEMP    WIND        PRES    WAVE
                       AIR SEA DIR/SP/G            HT/PER
                 (UTC) (F)     (DEG/KT/KT) (MB)    (FT/S)
PASCAGOULA       0200   65     170/  8/  9 1020.5R
PETIT BOIS ISLND 0200   64     130/  8/ 10 1021.1R
GRAND BAY        0100   66     150/  9     1021.0R
KATRINA CUT      0100   65     140/ 12     1021.0R
CEDAR POINT      0100   64     150/  6     1020.6R
E DAUPHIN ISLAND 0200   65      90/ 12/ 13 1020.7R
MIDDLE BAY LIGHT 0100   65      90/ 13     1020.0R
USCG MOBILE BAY  0200   65 65  100/  7/  7 1019.6S
STATE DOCKS      0200   65 65              1020.4S
MEAHER PARK      0100   65     100/  2     1021.0R
WEEKS BAY        0100   63                   N/A
FORT MORGAN      0200   64     100/ 10/ 12 1020.5R
12 S ORANGE BCH  0200   63 66   70/ 12/ 14 1021.1R   2/ 3
PENSACOLA BAY    0200   63 66   30/  3/  4 1021.2R
64 S DAUPHIN ISL 0141   63 70   70/ 16/ 17 1020.9R
67 S FORT MORGAN 0100   63                 1020.3R

$$

SELECTED LOCATIONS ACROSS THE REGION

CITY           SKY/WX    TMP DP  RH WIND       PRES   REMARKS
NEW ORLEANS    PTCLDY    70  63  78 S9        30.11R
GULFPORT       CLEAR     66  58  75 SE9       30.14R
PASCAGOULA AP  CLEAR     60  59  96 S3        30.15R
PASCAGOULA*      N/A     63  59  88 CALM      30.15R
HATTIESBURG    CLEAR     64  56  75 CALM      30.13R
LAUREL         CLEAR     61  54  77 CALM      30.13R
MERIDIAN       CLEAR     60  54  80 CALM      30.13R
JACKSON        CLEAR     63  54  72 CALM      30.10S
MONTGOMERY     CLEAR     64  57  78 S3        30.14R
TROY           CLEAR     59  55  87 CALM      30.14R
KINSTON*       NOT AVBL
GENEVA*        NOT AVBL
ASHFORD*       NOT AVBL
DOTHAN         CLEAR     57  55  93 CALM      30.16S
PANAMA CITY    CLEAR     56  53  90 CALM      30.13S

$$




USA.gov is the U.S. government's official web portal to all federal, state and local government web resources and services.